EZY61GF EGCC-LFMT

Flight info

Callsign EZY61GF
Flight time N/A
Altitude 35000
Route SANBA N859 HON UL612 VEULE/N0437F370 DCT DEKOD UN857 DISAK/N0421F330 DCT DIRMO DCT ETAMO DCT ADEKA DCT MOKDI DCT MEN
Aircraft A319/M-SDE2E3FGIJ1RWXYZ/LB1

Departure

Time N/A
Airport Manchester Airport (EGCC)

Arrival

Time 2026-05-07 08:48
Airport Montpellier-Méditerranée Airport (LFMT)
Time Latitude Longitude Altitude Speed Heading
2026-05-07 07:12 52.59517 -1.86512 20561 ft 374 kts 153°
2026-05-07 07:12 52.57134 -1.84489 21185 ft 377 kts 153°
2026-05-07 07:13 52.54790 -1.82503 21786 ft 381 kts 153°
2026-05-07 07:13 52.52430 -1.80506 22393 ft 383 kts 152°
2026-05-07 07:13 52.50050 -1.78489 23012 ft 386 kts 152°
2026-05-07 07:13 52.47654 -1.76461 23593 ft 390 kts 152°
2026-05-07 07:14 52.45494 -1.74637 24027 ft 393 kts 152°
2026-05-07 07:14 52.43053 -1.72584 24501 ft 396 kts 152°
2026-05-07 07:14 52.40596 -1.70521 24967 ft 398 kts 152°
2026-05-07 07:14 52.38121 -1.68444 25442 ft 401 kts 152°
2026-05-07 07:15 52.35631 -1.66350 25894 ft 404 kts 152°
2026-05-07 07:15 52.33124 -1.64252 26347 ft 406 kts 152°
2026-05-07 07:15 52.30646 -1.62206 26785 ft 409 kts 152°
2026-05-07 07:15 52.28044 -1.60075 27239 ft 412 kts 152°
2026-05-07 07:16 52.25552 -1.58044 27662 ft 414 kts 152°
2026-05-07 07:16 52.22971 -1.55945 28115 ft 416 kts 152°
2026-05-07 07:16 52.20371 -1.53827 28551 ft 419 kts 152°
2026-05-07 07:16 52.17758 -1.51698 28972 ft 421 kts 152°
2026-05-07 07:17 52.15127 -1.49553 29387 ft 424 kts 152°
2026-05-07 07:17 52.12479 -1.47395 29802 ft 427 kts 152°
2026-05-07 07:17 52.09971 -1.45356 30162 ft 430 kts 152°
2026-05-07 07:17 52.07328 -1.43211 30485 ft 432 kts 152°
2026-05-07 07:18 52.04633 -1.41023 30802 ft 435 kts 152°
2026-05-07 07:18 52.01917 -1.38820 31136 ft 437 kts 152°
2026-05-07 07:18 51.99196 -1.36615 31458 ft 439 kts 152°
2026-05-07 07:18 51.96568 -1.34485 31781 ft 440 kts 152°
2026-05-07 07:19 51.93922 -1.32345 32227 ft 439 kts 152°
2026-05-07 07:19 51.91313 -1.30243 32672 ft 438 kts 152°
2026-05-07 07:19 51.88586 -1.28050 33133 ft 437 kts 152°
2026-05-07 07:19 51.85870 -1.25867 33585 ft 436 kts 152°
2026-05-07 07:20 51.83492 -1.23958 33989 ft 435 kts 152°
2026-05-07 07:20 51.80993 -1.21955 34353 ft 435 kts 152°
2026-05-07 07:20 51.78255 -1.19767 34694 ft 435 kts 153°
2026-05-07 07:20 51.75735 -1.17753 34967 ft 436 kts 153°
2026-05-07 07:21 51.70356 -1.13449 35084 ft 427 kts 153°
2026-05-07 07:21 51.65063 -1.09238 35084 ft 423 kts 153°
2026-05-07 07:22 51.59940 -1.04604 35086 ft 422 kts 144°
2026-05-07 07:22 51.55332 -0.99319 35085 ft 423 kts 144°
2026-05-07 07:23 51.50696 -0.94031 35080 ft 424 kts 144°
2026-05-07 07:23 51.45906 -0.88685 35072 ft 424 kts 149°
2026-05-07 07:24 51.40647 -0.84904 35072 ft 424 kts 159°
2026-05-07 07:24 51.35918 -0.81893 35072 ft 424 kts 159°
2026-05-07 07:25 51.28075 -0.76881 35075 ft 425 kts 159°
2026-05-07 07:26 51.22646 -0.73409 35082 ft 425 kts 159°
2026-05-07 07:26 51.17158 -0.69924 35079 ft 425 kts 159°
2026-05-07 07:27 51.11664 -0.66452 35078 ft 425 kts 159°
2026-05-07 07:27 51.06198 -0.62950 35073 ft 425 kts 155°
2026-05-07 07:28 51.01731 -0.58577 35075 ft 425 kts 146°
2026-05-07 07:28 50.96828 -0.53324 35074 ft 425 kts 147°
2026-05-07 07:29 50.91911 -0.48098 35078 ft 425 kts 147°
2026-05-07 07:29 50.86995 -0.42885 35075 ft 425 kts 147°
2026-05-07 07:30 50.82077 -0.37672 35067 ft 426 kts 147°
2026-05-07 07:30 50.77148 -0.32478 35074 ft 426 kts 147°
2026-05-07 07:31 50.72216 -0.27292 35070 ft 426 kts 147°
2026-05-07 07:31 50.67285 -0.22106 35074 ft 426 kts 147°
2026-05-07 07:32 50.62352 -0.16926 35058 ft 426 kts 148°
2026-05-07 07:32 50.57450 -0.11795 35052 ft 426 kts 148°
2026-05-07 07:33 50.52508 -0.06636 35060 ft 426 kts 148°
2026-05-07 07:33 50.47558 -0.01497 35059 ft 427 kts 148°
2026-05-07 07:34 50.42607 0.03637 35067 ft 427 kts 148°
2026-05-07 07:34 50.37654 0.08766 35056 ft 427 kts 148°
2026-05-07 07:35 50.32693 0.13893 35054 ft 427 kts 148°
2026-05-07 07:35 50.27733 0.18998 35057 ft 427 kts 148°
2026-05-07 07:36 50.22762 0.24093 35062 ft 427 kts 148°
2026-05-07 07:36 50.17795 0.29191 35055 ft 427 kts 148°
2026-05-07 07:37 50.12828 0.34304 35063 ft 428 kts 148°
2026-05-07 07:37 50.07857 0.39397 35062 ft 428 kts 148°
2026-05-07 07:38 50.02883 0.44478 35066 ft 428 kts 148°
2026-05-07 07:38 49.97909 0.49554 35061 ft 428 kts 148°
2026-05-07 07:39 49.92933 0.54628 35051 ft 428 kts 148°
2026-05-07 07:39 49.87981 0.59647 35054 ft 428 kts 148°
2026-05-07 07:40 49.82948 0.64711 35049 ft 428 kts 149°
2026-05-07 07:40 49.77940 0.69601 35052 ft 428 kts 150°
2026-05-07 07:41 49.72880 0.74473 35048 ft 428 kts 150°
2026-05-07 07:41 49.67821 0.79351 35051 ft 429 kts 149°
2026-05-07 07:42 49.62766 0.84239 35054 ft 429 kts 149°
2026-05-07 07:42 49.57702 0.89132 35054 ft 429 kts 149°
2026-05-07 07:43 49.52638 0.94012 35063 ft 429 kts 149°
2026-05-07 07:43 49.47571 0.98870 35059 ft 429 kts 150°
2026-05-07 07:44 49.42500 1.03717 35071 ft 429 kts 150°
2026-05-07 07:44 49.37436 1.08565 35074 ft 429 kts 150°
2026-05-07 07:45 49.32370 1.13409 35073 ft 429 kts 150°
2026-05-07 07:45 49.27294 1.18229 35069 ft 429 kts 150°
2026-05-07 07:46 49.22215 1.23037 35065 ft 429 kts 150°
2026-05-07 07:46 49.17138 1.27837 35072 ft 429 kts 150°
2026-05-07 07:47 49.12058 1.32635 35069 ft 429 kts 150°
2026-05-07 07:47 49.06980 1.37418 35069 ft 429 kts 150°
2026-05-07 07:48 49.01899 1.42189 35068 ft 429 kts 150°
2026-05-07 07:48 48.96818 1.46942 35070 ft 429 kts 150°
2026-05-07 07:49 48.91740 1.51689 35067 ft 429 kts 150°
2026-05-07 07:49 48.86656 1.56429 35059 ft 429 kts 150°
2026-05-07 07:50 48.82434 1.60361 35055 ft 428 kts 150°
2026-05-07 07:50 48.77350 1.65086 35054 ft 428 kts 150°
2026-05-07 07:51 48.71440 1.70559 35055 ft 428 kts 150°
2026-05-07 07:51 48.66352 1.75252 35047 ft 428 kts 150°
2026-05-07 07:52 48.62089 1.79181 35042 ft 428 kts 150°
2026-05-07 07:52 48.57001 1.83865 35046 ft 428 kts 150°
2026-05-07 07:53 48.51907 1.88529 35044 ft 428 kts 150°
2026-05-07 07:53 48.46844 1.93157 35047 ft 428 kts 150°
2026-05-07 07:54 48.41749 1.97802 35031 ft 428 kts 150°
2026-05-07 07:54 48.36649 2.02443 35041 ft 428 kts 150°
2026-05-07 07:55 48.31550 2.07084 35048 ft 428 kts 150°
2026-05-07 07:55 48.26071 2.10410 35047 ft 424 kts 169°
2026-05-07 07:56 48.20247 2.11712 35033 ft 423 kts 174°
2026-05-07 07:56 48.14413 2.12929 35037 ft 423 kts 174°
2026-05-07 07:57 48.08549 2.13446 35041 ft 422 kts 179°
2026-05-07 07:57 48.02677 2.13804 35042 ft 423 kts 179°
2026-05-07 07:58 47.96800 2.14145 35033 ft 423 kts 180°
2026-05-07 07:58 47.90924 2.14482 35037 ft 423 kts 179°
2026-05-07 07:59 47.85041 2.14832 35039 ft 423 kts 179°
2026-05-07 07:59 47.79160 2.15175 35043 ft 423 kts 179°
2026-05-07 08:00 47.73282 2.15524 35034 ft 423 kts 180°
2026-05-07 08:00 47.67406 2.15866 35038 ft 422 kts 180°
2026-05-07 08:01 47.61534 2.16202 35041 ft 423 kts 180°
2026-05-07 08:01 47.55657 2.16544 35039 ft 423 kts 180°
2026-05-07 08:02 47.49784 2.16893 35043 ft 422 kts 180°
2026-05-07 08:02 47.43910 2.17233 35044 ft 422 kts 180°
2026-05-07 08:03 47.38043 2.17563 35045 ft 422 kts 180°
2026-05-07 08:03 47.32172 2.17890 35039 ft 422 kts 180°
2026-05-07 08:04 47.26304 2.18227 35044 ft 421 kts 180°
2026-05-07 08:04 47.20447 2.18567 35047 ft 421 kts 180°
2026-05-07 08:05 47.14591 2.18899 35036 ft 421 kts 180°
2026-05-07 08:05 47.08755 2.19663 35042 ft 424 kts 169°
2026-05-07 08:06 47.03186 2.22586 35046 ft 426 kts 160°
2026-05-07 08:06 46.97679 2.25818 35047 ft 426 kts 160°
2026-05-07 08:07 46.92171 2.29018 35038 ft 426 kts 161°
2026-05-07 08:07 46.86661 2.32223 35041 ft 426 kts 161°
2026-05-07 08:08 46.81401 2.36239 35042 ft 429 kts 149°
2026-05-07 08:08 46.76436 2.40984 35041 ft 429 kts 149°
2026-05-07 08:09 46.71441 2.45755 35032 ft 430 kts 149°
2026-05-07 08:09 46.66432 2.50528 35027 ft 430 kts 149°
2026-05-07 08:10 46.61411 2.55286 35028 ft 431 kts 149°
2026-05-07 08:10 46.56384 2.60029 35030 ft 431 kts 149°
2026-05-07 08:11 46.51353 2.64769 35019 ft 431 kts 149°
2026-05-07 08:11 46.46324 2.69510 35025 ft 431 kts 149°
2026-05-07 08:12 46.41290 2.74243 35025 ft 431 kts 149°
2026-05-07 08:12 46.36258 2.78968 35022 ft 431 kts 149°
2026-05-07 08:13 46.31221 2.83678 35013 ft 432 kts 150°
2026-05-07 08:13 46.26291 2.88268 35014 ft 433 kts 150°
2026-05-07 08:14 46.21219 2.92980 35020 ft 433 kts 150°
2026-05-07 08:14 46.16149 2.97684 35024 ft 434 kts 150°
2026-05-07 08:15 46.11077 3.02395 35011 ft 434 kts 150°
2026-05-07 08:15 46.06001 3.07096 35023 ft 434 kts 150°
2026-05-07 08:16 46.00922 3.11783 35033 ft 434 kts 150°
2026-05-07 08:16 45.95704 3.16060 35039 ft 429 kts 162°
2026-05-07 08:17 45.90008 3.17899 35034 ft 420 kts 181°
2026-05-07 08:17 45.84192 3.17875 35037 ft 418 kts 185°
2026-05-07 08:18 45.78368 3.17800 35038 ft 419 kts 184°
2026-05-07 08:18 45.72536 3.17725 35024 ft 419 kts 185°
2026-05-07 08:19 45.66703 3.17643 35010 ft 419 kts 185°
2026-05-07 08:19 45.60875 3.17553 35016 ft 418 kts 185°
2026-05-07 08:20 45.55055 3.17480 35019 ft 418 kts 185°
2026-05-07 08:20 45.49237 3.17406 35013 ft 418 kts 185°
2026-05-07 08:21 45.43424 3.17327 35018 ft 418 kts 185°
2026-05-07 08:21 45.37608 3.17254 35020 ft 418 kts 185°
2026-05-07 08:22 45.31796 3.17180 35005 ft 418 kts 185°
2026-05-07 08:22 45.25985 3.17103 35017 ft 417 kts 185°
2026-05-07 08:23 45.20182 3.17031 34916 ft 418 kts 185°
2026-05-07 08:23 45.17279 3.16994 34669 ft 417 kts 185°
2026-05-07 08:23 45.14380 3.16954 34413 ft 416 kts 185°
2026-05-07 08:23 45.11486 3.16912 34177 ft 415 kts 185°
2026-05-07 08:24 45.08609 3.16875 33924 ft 413 kts 185°
2026-05-07 08:24 45.05743 3.16841 33646 ft 411 kts 185°
2026-05-07 08:24 45.02886 3.16803 33368 ft 409 kts 185°
2026-05-07 08:24 45.00054 3.16765 33048 ft 404 kts 185°
2026-05-07 08:25 44.97251 3.16728 32559 ft 401 kts 185°
2026-05-07 08:25 44.94470 3.16687 32065 ft 398 kts 185°
2026-05-07 08:25 44.91713 3.16648 31596 ft 395 kts 185°
2026-05-07 08:25 44.88975 3.16611 31134 ft 392 kts 185°
2026-05-07 08:26 44.83541 3.16538 30225 ft 388 kts 184°
2026-05-07 08:26 44.80850 3.16504 29733 ft 386 kts 184°
2026-05-07 08:26 44.78179 3.16471 29306 ft 382 kts 184°
2026-05-07 08:27 44.75524 3.16439 28877 ft 379 kts 184°
2026-05-07 08:27 44.72895 3.16405 28461 ft 376 kts 184°
2026-05-07 08:27 44.70291 3.16373 28052 ft 373 kts 184°
2026-05-07 08:27 44.67707 3.16344 27631 ft 370 kts 184°
2026-05-07 08:28 44.65144 3.16314 27215 ft 367 kts 184°
2026-05-07 08:28 44.62634 3.16437 26788 ft 367 kts 176°
2026-05-07 08:28 44.60112 3.17240 26361 ft 368 kts 164°
2026-05-07 08:28 44.57801 3.18689 25935 ft 369 kts 153°
2026-05-07 08:29 44.55578 3.20481 25479 ft 368 kts 153°
2026-05-07 08:29 44.53363 3.22264 25025 ft 366 kts 153°
2026-05-07 08:29 44.51155 3.24036 24555 ft 365 kts 153°
2026-05-07 08:29 44.48951 3.25800 24089 ft 365 kts 153°
2026-05-07 08:30 44.46749 3.27559 23615 ft 364 kts 153°
2026-05-07 08:30 44.44548 3.29315 23090 ft 363 kts 153°
2026-05-07 08:30 44.42360 3.31058 22627 ft 361 kts 153°
2026-05-07 08:30 44.40185 3.32792 22157 ft 359 kts 152°
2026-05-07 08:31 44.38022 3.34521 21706 ft 357 kts 152°
2026-05-07 08:31 44.35874 3.36239 21263 ft 355 kts 152°
2026-05-07 08:31 44.33736 3.37943 20824 ft 353 kts 152°
2026-05-07 08:31 44.31603 3.39643 20382 ft 352 kts 152°
2026-05-07 08:32 44.29484 3.41329 19945 ft 350 kts 152°
2026-05-07 08:32 44.27373 3.43002 19515 ft 348 kts 152°
2026-05-07 08:32 44.25266 3.44670 19089 ft 347 kts 152°
2026-05-07 08:32 44.23167 3.46334 18655 ft 346 kts 152°
2026-05-07 08:33 44.21075 3.47993 18225 ft 345 kts 152°
2026-05-07 08:33 44.18991 3.49642 17773 ft 344 kts 152°
2026-05-07 08:33 44.16920 3.51281 17354 ft 341 kts 152°
2026-05-07 08:33 44.14863 3.52908 16949 ft 339 kts 152°
2026-05-07 08:34 44.12817 3.54526 16527 ft 337 kts 152°
2026-05-07 08:34 44.10781 3.56133 16118 ft 336 kts 152°
2026-05-07 08:34 44.08751 3.57735 15701 ft 334 kts 152°
2026-05-07 08:34 44.07415 3.58788 15437 ft 333 kts 152°
2026-05-07 08:35 44.05403 3.60374 15025 ft 332 kts 152°
2026-05-07 08:35 44.03394 3.61955 14624 ft 331 kts 152°
2026-05-07 08:35 44.00746 3.64034 14093 ft 330 kts 152°
2026-05-07 08:35 43.98753 3.65600 13670 ft 328 kts 152°
2026-05-07 08:36 43.96771 3.67157 13247 ft 326 kts 152°
2026-05-07 08:36 43.94807 3.68694 12856 ft 323 kts 152°
2026-05-07 08:36 43.93486 3.69728 12590 ft 322 kts 152°
2026-05-07 08:36 43.91545 3.71248 12198 ft 320 kts 152°
2026-05-07 08:37 43.89612 3.72764 11809 ft 318 kts 152°
2026-05-07 08:37 43.87818 3.74167 11447 ft 316 kts 152°
2026-05-07 08:37 43.85934 3.75637 11063 ft 314 kts 152°
2026-05-07 08:37 43.84041 3.77114 10688 ft 312 kts 152°
2026-05-07 08:38 43.82155 3.78586 10306 ft 310 kts 152°
2026-05-07 08:38 43.80366 3.80251 9939 ft 311 kts 141°
2026-05-07 08:38 43.78754 3.82172 9771 ft 301 kts 141°
2026-05-07 08:38 43.77173 3.84035 9430 ft 297 kts 141°
2026-05-07 08:39 43.75602 3.85873 9038 ft 295 kts 141°
2026-05-07 08:39 43.74037 3.87696 8635 ft 293 kts 141°
2026-05-07 08:39 43.72546 3.89603 8318 ft 290 kts 134°
2026-05-07 08:39 43.71212 3.91673 7984 ft 287 kts 133°
2026-05-07 08:40 43.69904 3.93747 7605 ft 286 kts 133°
2026-05-07 08:40 43.68604 3.95814 7225 ft 284 kts 133°
2026-05-07 08:40 43.67311 3.97869 6849 ft 283 kts 133°
2026-05-07 08:40 43.66023 3.99913 6453 ft 281 kts 133°
2026-05-07 08:41 43.64743 4.01942 6051 ft 279 kts 132°
2026-05-07 08:41 43.63468 4.03946 5655 ft 277 kts 132°
2026-05-07 08:41 43.62194 4.05922 5281 ft 274 kts 133°
2026-05-07 08:41 43.60930 4.07869 4919 ft 271 kts 132°
2026-05-07 08:42 43.59668 4.09779 4546 ft 267 kts 132°
2026-05-07 08:42 43.58405 4.11651 4150 ft 266 kts 133°
2026-05-07 08:42 43.57146 4.13496 3765 ft 264 kts 132°
2026-05-07 08:42 43.55881 4.15321 3481 ft 260 kts 132°
2026-05-07 08:43 43.54654 4.17076 3352 ft 248 kts 134°
2026-05-07 08:43 43.53265 4.18342 3220 ft 236 kts 162°
2026-05-07 08:43 43.51680 4.18402 3093 ft 226 kts 196°
2026-05-07 08:43 43.50296 4.17473 2963 ft 218 kts 214°
2026-05-07 08:44 43.49402 4.15897 2844 ft 208 kts 254°
2026-05-07 08:44 43.49410 4.14001 2757 ft 195 kts 289°
2026-05-07 08:44 43.50090 4.12412 2511 ft 193 kts 307°
2026-05-07 08:44 43.50874 4.10889 2235 ft 196 kts 307°
2026-05-07 08:45 43.51641 4.09383 1978 ft 188 kts 308°
2026-05-07 08:45 43.52369 4.07944 1736 ft 181 kts 307°
2026-05-07 08:45 43.53079 4.06540 1491 ft 173 kts 308°
2026-05-07 08:45 43.53759 4.05194 1269 ft 169 kts 308°
2026-05-07 08:46 43.54400 4.03923 1044 ft 152 kts 308°
2026-05-07 08:46 43.54973 4.02787 838 ft 138 kts 308°
2026-05-07 08:46 43.55508 4.01728 661 ft 133 kts 308°
2026-05-07 08:46 43.56035 4.00684 477 ft 133 kts 307°
2026-05-07 08:47 43.56568 3.99628 304 ft 135 kts 307°
2026-05-07 08:47 43.57099 3.98576 133 ft 136 kts 306°
2026-05-07 08:47 43.57624 3.97534 25 ft 119 kts 306°
2026-05-07 08:47 43.58017 3.96752 22 ft 75 kts 304°
2026-05-07 08:48 43.58231 3.96326 27 ft 44 kts 304°
2026-05-07 08:48 43.58322 3.96126 24 ft 10 kts 275°
2026-05-07 08:48 43.58296 3.96052 24 ft 10 kts 241°
2026-05-07 08:48 43.58264 3.95964 26 ft 11 kts 244°
2026-05-07 08:49 43.58233 3.95873 25 ft 11 kts 245°
2026-05-07 08:49 43.58194 3.95783 24 ft 9 kts 224°
2026-05-07 08:49 43.58131 3.95779 24 ft 10 kts 146°
2026-05-07 08:49 43.58083 3.95863 23 ft 12 kts 124°
2026-05-07 08:50 43.58050 3.95942 25 ft 10 kts 109°
2026-05-07 08:50 43.58020 3.96025 23 ft 7 kts 124°
2026-05-07 08:50 43.58016 3.96033 23 ft 1 kts 124°
2026-05-07 08:50 43.58005 3.96054 23 ft 4 kts 132°
2026-05-07 08:51 43.57978 3.96048 22 ft 5 kts 213°
2026-05-07 08:51 43.57966 3.96009 22 ft 5 kts 255°
2026-05-07 08:51 43.57961 3.95984 24 ft 2 kts 255°
2026-05-07 08:51 43.57960 3.95980 23 ft 0 kts 255°